Weather in Taubate

Brazil     23°00′48″S   45°33′13″W
temp.,
°C
wind,
m/s
gust,
m/s
humid.,
%
clouds,
%
prec.,
mm/h
press.,
hPa
HPBL,
m
4 july, mon
mon400:00+13ene11740 0.0 102414
03:00+12ene11740 0.0 102315
06:00+11ene11780 0.0 102414
09:00+18ene23560 0.0 1024266
12:00+26e12330 0.0 1021846
15:00+27ssw11300 0.0 10181159
18:00+18wsw01580 0.0 102012
21:00+15ene11653 0.0 102215
5 july, tue
tue500:00+13ene11710 0.0 102213
03:00+11e117751 0.0 102211
06:00+11ene22789 0.0 102216
09:00+18ene23513 0.0 1023267
12:00+25ene12330 0.0 1020729
15:00+27se11280 0.0 10161029
18:00+17sw01550 0.0 101812
21:00+14ene11651 0.0 102114
6 july, wed
wed600:00+13ene117190 0.0 102114
03:00+11ene117930 0.0 102011
06:00+11e11810 0.0 102112
09:00+18ene125485 0.0 1022258
12:00+25ese1134100 0.0 1019751
15:00+26sse11295 0.0 10161176
18:00+18wsw01545 0.0 101712
21:00+14ene126256 0.0 101915
7 july, thu
thu700:00+13ene11685 0.0 102015
03:00+12ene2270100 0.0 101937
06:00+12ene2271100 0.0 102022
09:00+19ne2352100 0.0 1022230
12:00+26ne243480 0.0 10201191
15:00+28wnw232894 0.0 10172044
18:00+19wnw1156100 0.0 101915
21:00+16ene22640 0.0 102126
8 july, fri
fri800:00+14ene12710 0.0 102223
03:00+13ene11760 0.0 102213
06:00+13ene22760 0.0 102228
09:00+19e12535 0.0 1023270
12:00+27e013472 0.0 1021932
15:00+28s222565 0.0 10181654
18:00+19sse11464 0.0 102017
21:00+15ene11620 0.0 102213